Location: Ripley
(48.3812°N, 115.4473°W)
Time: 23:18:47
(UTC+00:00)

EO-79 - Pass Details

Date: 09 July 2022
Orbit: 588 x 603 km, 98.0° (Epoch: 18 August)

Event Time Altitude Azimuth Distance (km) Brightness Sun altitude
Rises 10:18:50 0° 5° (N) 2,865 ? -11.6°
Reaches altitude 10° 10:21:09 10° 356° (N) 1,959 ? -11.3°
Maximum altitude 10:24:57 33° 293° (WNW) 1,029 ? -11.0°
Enters shadow 10:28:05 14° 234° (SW) 1,711 ? -10.7°
